WZZ7710 ESGG-LWSK

Flight info

Callsign WZZ7710
Flight time 2h 30m
Altitude 35000
Route TOPLA DCT KEMAX DCT KOLOB DCT DESEN DCT VALPI DCT NIT DCT BABIT DCT OKTAS DCT REDVA UL616 KOGAT
Aircraft B738/M-SDE2E3FGHIRWXY/LB1

Departure

Time 2026-04-13 15:55
Airport Göteborg Landvetter Airport (ESGG)

Arrival

Time 2026-04-13 18:25
Airport Skopje International Airport (LWSK)
Time Latitude Longitude Altitude Speed Heading
2026-04-13 15:28 57.67064 12.29503 515 ft 0 kts 296°
2026-04-13 15:29 57.67006 12.29529 515 ft 0 kts 116°
2026-04-13 15:47 57.67013 12.29505 515 ft 4 kts 116°
2026-04-13 15:47 57.67024 12.29460 515 ft 4 kts 117°
2026-04-13 15:47 57.67039 12.29422 515 ft 4 kts 154°
2026-04-13 15:47 57.67055 12.29421 515 ft 2 kts 206°
2026-04-13 15:48 57.67072 12.29437 515 ft 0 kts 206°
2026-04-13 15:50 57.67035 12.29403 515 ft 8 kts 206°
2026-04-13 15:51 57.66985 12.29354 515 ft 8 kts 221°
2026-04-13 15:51 57.66991 12.29259 515 ft 8 kts 296°
2026-04-13 15:51 57.67033 12.29200 515 ft 8 kts 341°
2026-04-13 15:51 57.67086 12.29224 515 ft 11 kts 26°
2026-04-13 15:52 57.67165 12.29297 515 ft 14 kts 26°
2026-04-13 15:52 57.67260 12.29384 515 ft 15 kts 26°
2026-04-13 15:52 57.67355 12.29471 515 ft 15 kts 26°
2026-04-13 15:52 57.67445 12.29554 515 ft 14 kts 26°
2026-04-13 15:53 57.67524 12.29610 515 ft 7 kts
2026-04-13 15:53 57.67555 12.29560 515 ft 6 kts 292°
2026-04-13 15:53 57.67580 12.29456 515 ft 11 kts 294°
2026-04-13 15:53 57.67591 12.29326 515 ft 11 kts 266°
2026-04-13 15:54 57.67563 12.29159 515 ft 16 kts 232°
2026-04-13 15:54 57.67470 12.29060 514 ft 20 kts 206°
2026-04-13 15:54 57.67125 12.28750 513 ft 90 kts 206°
2026-04-13 15:54 57.66365 12.28062 510 ft 151 kts 205°
2026-04-13 15:55 57.65322 12.27046 800 ft 178 kts 205°
2026-04-13 15:55 57.64212 12.25873 1461 ft 190 kts 201°
2026-04-13 15:55 57.62936 12.24774 1769 ft 215 kts 199°
2026-04-13 15:55 57.61535 12.23617 2284 ft 221 kts 195°
2026-04-13 15:56 57.60031 12.23240 2880 ft 219 kts 175°
2026-04-13 15:56 57.58476 12.23137 3455 ft 227 kts 180°
2026-04-13 15:56 57.56906 12.22869 4020 ft 225 kts 181°
2026-04-13 15:56 57.55349 12.22615 4626 ft 226 kts 176°
2026-04-13 15:57 57.53787 12.22849 5225 ft 225 kts 168°
2026-04-13 15:57 57.52239 12.23298 5839 ft 225 kts 167°
2026-04-13 15:57 57.50684 12.23774 6438 ft 228 kts 168°
2026-04-13 15:57 57.49108 12.24248 7037 ft 236 kts 168°
2026-04-13 15:58 57.47450 12.24736 7648 ft 246 kts 168°
2026-04-13 15:58 57.45736 12.25228 8249 ft 251 kts 168°
2026-04-13 15:58 57.44011 12.25713 8842 ft 251 kts 169°
2026-04-13 15:58 57.42283 12.26196 9458 ft 250 kts 168°
2026-04-13 15:59 57.40557 12.26670 10078 ft 250 kts 169°
2026-04-13 15:59 57.38833 12.27135 10637 ft 251 kts 169°
2026-04-13 15:59 57.37100 12.27606 11222 ft 258 kts 169°
2026-04-13 15:59 57.35312 12.28091 11809 ft 264 kts 169°
2026-04-13 16:00 57.33464 12.28590 12417 ft 270 kts 170°
2026-04-13 16:00 57.31581 12.29096 13032 ft 277 kts 170°
2026-04-13 16:00 57.29660 12.29611 13642 ft 283 kts 171°
2026-04-13 16:00 57.27678 12.30143 14195 ft 290 kts 171°
2026-04-13 16:01 57.25649 12.30686 14732 ft 297 kts 171°
2026-04-13 16:01 57.23578 12.31240 15245 ft 304 kts 172°
2026-04-13 16:01 57.21461 12.31805 15773 ft 310 kts 172°
2026-04-13 16:01 57.19325 12.32376 16302 ft 316 kts 172°
2026-04-13 16:02 57.17134 12.32960 16852 ft 321 kts 172°
2026-04-13 16:02 57.14897 12.33557 17407 ft 326 kts 172°
2026-04-13 16:02 57.12712 12.34778 17931 ft 334 kts 152°
2026-04-13 16:02 57.10757 12.37072 18544 ft 337 kts 149°
2026-04-13 16:03 57.08763 12.39401 19035 ft 341 kts 150°
2026-04-13 16:03 57.06735 12.41715 19539 ft 345 kts 150°
2026-04-13 16:03 57.04683 12.44037 20054 ft 348 kts 151°
2026-04-13 16:03 57.02617 12.46370 20578 ft 350 kts 151°
2026-04-13 16:04 57.00524 12.48731 21112 ft 353 kts 151°
2026-04-13 16:04 56.98427 12.51095 21649 ft 355 kts 151°
2026-04-13 16:04 56.96321 12.53468 22208 ft 357 kts 151°
2026-04-13 16:04 56.94200 12.55855 22764 ft 358 kts 151°
2026-04-13 16:05 56.92076 12.58244 23345 ft 358 kts 152°
2026-04-13 16:05 56.89948 12.60635 23883 ft 359 kts 152°
2026-04-13 16:05 56.87808 12.63034 24300 ft 361 kts 152°
2026-04-13 16:05 56.85685 12.65413 24725 ft 363 kts 152°
2026-04-13 16:06 56.83527 12.67827 25153 ft 364 kts 152°
2026-04-13 16:06 56.81350 12.70259 25595 ft 366 kts 152°
2026-04-13 16:06 56.79174 12.72687 26037 ft 366 kts 153°
2026-04-13 16:06 56.76993 12.75118 26490 ft 367 kts 153°
2026-04-13 16:07 56.75549 12.76725 26797 ft 367 kts 153°
2026-04-13 16:07 56.73373 12.79144 27245 ft 367 kts 153°
2026-04-13 16:07 56.71194 12.81564 27708 ft 366 kts 153°
2026-04-13 16:07 56.69020 12.83975 28179 ft 366 kts 154°
2026-04-13 16:08 56.66141 12.87162 28770 ft 365 kts 154°
2026-04-13 16:08 56.63969 12.89561 29203 ft 365 kts 154°
2026-04-13 16:08 56.62505 12.91177 29503 ft 365 kts 154°
2026-04-13 16:08 56.60339 12.93567 29945 ft 364 kts 154°
2026-04-13 16:09 56.58185 12.95938 30375 ft 363 kts 155°
2026-04-13 16:09 56.56049 12.98288 30752 ft 361 kts 155°
2026-04-13 16:09 56.53911 13.00637 31139 ft 359 kts 155°
2026-04-13 16:09 56.51775 13.02980 31485 ft 358 kts 155°
2026-04-13 16:10 56.49641 13.05316 31806 ft 358 kts 155°
2026-04-13 16:10 56.47515 13.07641 32097 ft 358 kts 155°
2026-04-13 16:10 56.45374 13.09978 32410 ft 357 kts 155°
2026-04-13 16:10 56.43268 13.12276 32720 ft 356 kts 156°
2026-04-13 16:11 56.41146 13.14588 33034 ft 355 kts 156°
2026-04-13 16:11 56.39026 13.16895 33347 ft 354 kts 156°
2026-04-13 16:11 56.36923 13.19181 33633 ft 353 kts 156°
2026-04-13 16:11 56.34812 13.21469 33843 ft 355 kts 156°
2026-04-13 16:12 56.32689 13.23769 34069 ft 355 kts 156°
2026-04-13 16:12 56.30574 13.26057 34275 ft 356 kts 156°
2026-04-13 16:12 56.28441 13.28362 34460 ft 357 kts 156°
2026-04-13 16:12 56.26335 13.30635 34627 ft 358 kts 156°
2026-04-13 16:13 56.24189 13.32949 34798 ft 359 kts 156°
2026-04-13 16:13 56.22041 13.35263 34970 ft 360 kts 156°
2026-04-13 16:13 56.19887 13.37580 35110 ft 362 kts 156°
2026-04-13 16:13 56.17717 13.39912 35211 ft 365 kts 156°
2026-04-13 16:14 56.13299 13.44642 35214 ft 374 kts 156°
2026-04-13 16:14 56.08830 13.49696 35227 ft 386 kts 153°
2026-04-13 16:15 56.04311 13.55116 35221 ft 396 kts 153°
2026-04-13 16:15 55.99707 13.60621 35217 ft 405 kts 153°
2026-04-13 16:16 55.94954 13.66251 35237 ft 414 kts 153°
2026-04-13 16:16 55.90094 13.71971 35232 ft 423 kts 153°
2026-04-13 16:17 55.85126 13.77793 35234 ft 432 kts 153°
2026-04-13 16:17 55.80060 13.83711 35236 ft 440 kts 153°
2026-04-13 16:18 55.74897 13.89724 35230 ft 447 kts 152°
2026-04-13 16:18 55.69644 13.95823 35227 ft 454 kts 152°
2026-04-13 16:19 55.64309 14.01995 35214 ft 461 kts 152°
2026-04-13 16:19 55.58950 14.08176 35201 ft 465 kts 152°
2026-04-13 16:20 55.53495 14.14449 35187 ft 468 kts 152°
2026-04-13 16:20 55.48038 14.20702 35180 ft 469 kts 152°
2026-04-13 16:21 55.42544 14.26974 35176 ft 470 kts 152°
2026-04-13 16:21 55.37275 14.32970 35177 ft 470 kts 152°
2026-04-13 16:22 55.31735 14.39254 35167 ft 470 kts 153°
2026-04-13 16:23 55.23518 14.48532 35159 ft 470 kts 153°
2026-04-13 16:23 55.18006 14.54731 35155 ft 470 kts 153°
2026-04-13 16:24 55.12485 14.60919 35157 ft 471 kts 153°
2026-04-13 16:24 55.06999 14.67048 35155 ft 471 kts 153°
2026-04-13 16:25 55.01478 14.73196 35156 ft 471 kts 153°
2026-04-13 16:25 54.95926 14.79358 35157 ft 472 kts 153°
2026-04-13 16:26 54.90388 14.85485 35154 ft 472 kts 153°
2026-04-13 16:26 54.84838 14.91606 35157 ft 472 kts 153°
2026-04-13 16:27 54.79037 14.96698 35154 ft 462 kts 166°
2026-04-13 16:27 54.72991 15.00347 35146 ft 463 kts 166°
2026-04-13 16:28 54.66918 15.04076 35130 ft 464 kts 166°
2026-04-13 16:28 54.60842 15.07857 35133 ft 464 kts 165°
2026-04-13 16:29 54.54766 15.11648 35127 ft 464 kts 166°
2026-04-13 16:29 54.48686 15.15431 35128 ft 465 kts 166°
2026-04-13 16:30 54.42593 15.19208 35122 ft 465 kts 166°
2026-04-13 16:30 54.36495 15.22975 35122 ft 466 kts 166°
2026-04-13 16:31 54.30435 15.26706 35119 ft 466 kts 166°
2026-04-13 16:31 54.24311 15.30465 35116 ft 467 kts 166°
2026-04-13 16:32 54.18191 15.34210 35112 ft 467 kts 166°
2026-04-13 16:32 54.12049 15.37955 35113 ft 468 kts 166°
2026-04-13 16:33 54.05927 15.41678 35105 ft 469 kts 166°
2026-04-13 16:33 53.99765 15.45413 35099 ft 469 kts 166°
2026-04-13 16:34 53.93661 15.49101 35111 ft 469 kts 166°
2026-04-13 16:34 53.87454 15.52839 35107 ft 470 kts 166°
2026-04-13 16:35 53.81331 15.56516 35108 ft 470 kts 166°
2026-04-13 16:35 53.75160 15.60209 35103 ft 471 kts 166°
2026-04-13 16:36 53.68988 15.63892 35101 ft 471 kts 166°
2026-04-13 16:36 53.62781 15.67584 35097 ft 472 kts 166°
2026-04-13 16:37 53.56577 15.71263 35098 ft 472 kts 166°
2026-04-13 16:37 53.50372 15.74931 35102 ft 473 kts 166°
2026-04-13 16:38 53.44158 15.78592 35094 ft 473 kts 166°
2026-04-13 16:38 53.37978 15.82223 35098 ft 474 kts 166°
2026-04-13 16:39 53.31756 15.85867 35098 ft 474 kts 166°
2026-04-13 16:39 53.25509 15.89514 35095 ft 475 kts 166°
2026-04-13 16:40 53.19264 15.93150 35094 ft 475 kts 166°
2026-04-13 16:40 53.13012 15.96777 35094 ft 475 kts 166°
2026-04-13 16:41 53.06791 16.00376 35092 ft 476 kts 166°
2026-04-13 16:41 53.00523 16.03990 35089 ft 477 kts 166°
2026-04-13 16:42 52.94248 16.07597 35085 ft 477 kts 166°
2026-04-13 16:42 52.87960 16.11201 35088 ft 478 kts 166°
2026-04-13 16:43 52.81656 16.14804 35082 ft 479 kts 166°
2026-04-13 16:43 52.75392 16.18371 35085 ft 479 kts 166°
2026-04-13 16:44 52.69075 16.21959 35078 ft 480 kts 166°
2026-04-13 16:44 52.62993 16.25402 35079 ft 481 kts 166°
2026-04-13 16:45 52.56861 16.28864 35075 ft 482 kts 166°
2026-04-13 16:45 52.50511 16.32438 35081 ft 482 kts 166°
2026-04-13 16:46 52.44167 16.35997 35083 ft 483 kts 166°
2026-04-13 16:46 52.37846 16.39533 35086 ft 483 kts 166°
2026-04-13 16:47 52.31499 16.43073 35084 ft 484 kts 166°
2026-04-13 16:47 52.25219 16.46565 35080 ft 485 kts 166°
2026-04-13 16:48 52.18869 16.50085 35076 ft 485 kts 166°
2026-04-13 16:48 52.12487 16.53612 35071 ft 486 kts 166°
2026-04-13 16:49 52.06159 16.57099 35067 ft 487 kts 166°
2026-04-13 16:49 51.99844 16.60568 35068 ft 487 kts 166°
2026-04-13 16:50 51.93457 16.64066 35058 ft 488 kts 166°
2026-04-13 16:50 51.87128 16.67523 35064 ft 488 kts 166°
2026-04-13 16:51 51.80715 16.71014 35055 ft 488 kts 166°
2026-04-13 16:51 51.74343 16.74473 35058 ft 488 kts 166°
2026-04-13 16:52 51.67931 16.77943 35054 ft 489 kts 166°
2026-04-13 16:52 51.61541 16.81391 35058 ft 489 kts 166°
2026-04-13 16:53 51.55131 16.84840 35057 ft 490 kts 166°
2026-04-13 16:53 51.48707 16.88285 35061 ft 490 kts 166°
2026-04-13 16:54 51.43344 16.91154 35053 ft 491 kts 166°
2026-04-13 16:54 51.37043 16.94515 35054 ft 491 kts 166°
2026-04-13 16:55 51.30544 16.97972 35050 ft 492 kts 166°
2026-04-13 16:55 51.24179 17.01347 35047 ft 493 kts 166°
2026-04-13 16:56 51.17688 17.04780 35045 ft 493 kts 166°
2026-04-13 16:56 51.11318 17.08138 35048 ft 494 kts 166°
2026-04-13 16:57 51.04793 17.11568 35050 ft 494 kts 166°
2026-04-13 16:57 50.98354 17.14943 35048 ft 495 kts 166°
2026-04-13 16:58 50.91828 17.18354 35050 ft 495 kts 166°
2026-04-13 16:58 50.85360 17.21725 35051 ft 495 kts 166°
2026-04-13 16:59 50.78874 17.25094 35048 ft 495 kts 167°
2026-04-13 16:59 50.72347 17.28475 35052 ft 496 kts 167°
2026-04-13 17:00 50.65875 17.31818 35052 ft 496 kts 167°
2026-04-13 17:00 50.59395 17.35156 35059 ft 496 kts 167°
2026-04-13 17:01 50.52849 17.38517 35048 ft 497 kts 167°
2026-04-13 17:01 50.46379 17.41830 35050 ft 497 kts 167°
2026-04-13 17:02 50.39815 17.45181 35041 ft 497 kts 167°
2026-04-13 17:02 50.33269 17.48516 35048 ft 498 kts 167°
2026-04-13 17:03 50.26712 17.51832 35066 ft 497 kts 168°
2026-04-13 17:03 50.20090 17.54450 35050 ft 494 kts 173°
2026-04-13 17:04 50.13449 17.56653 35057 ft 493 kts 173°
2026-04-13 17:04 50.06766 17.58904 35052 ft 493 kts 173°
2026-04-13 17:05 50.00080 17.61238 35052 ft 492 kts 172°
2026-04-13 17:05 49.93470 17.63573 35046 ft 492 kts 172°
2026-04-13 17:06 49.86824 17.65917 35051 ft 492 kts 172°
2026-04-13 17:06 49.80309 17.68202 35039 ft 491 kts 172°
2026-04-13 17:07 49.74087 17.70377 35040 ft 491 kts 172°
2026-04-13 17:07 49.68028 17.72489 35030 ft 491 kts 172°
2026-04-13 17:08 49.61378 17.74801 35032 ft 490 kts 172°
2026-04-13 17:08 49.54718 17.77111 35034 ft 490 kts 172°
2026-04-13 17:09 49.48049 17.79417 35036 ft 490 kts 172°
2026-04-13 17:09 49.41443 17.81695 35036 ft 489 kts 172°
2026-04-13 17:10 49.34877 17.83959 35009 ft 470 kts 172°
2026-04-13 17:10 49.31741 17.85043 35018 ft 454 kts 172°
2026-04-13 17:10 49.28712 17.86087 35015 ft 439 kts 172°
2026-04-13 17:10 49.25772 17.87095 35019 ft 427 kts 172°
2026-04-13 17:11 49.22869 17.88082 35042 ft 429 kts 172°
2026-04-13 17:11 49.16969 17.90078 35047 ft 440 kts 172°
2026-04-13 17:12 49.10924 17.92134 35053 ft 450 kts 172°
2026-04-13 17:12 49.04742 17.94236 35053 ft 459 kts 172°
2026-04-13 17:13 48.98440 17.95797 35054 ft 464 kts 179°
2026-04-13 17:13 48.91939 17.96592 35044 ft 471 kts 180°
2026-04-13 17:14 48.85343 17.97399 35035 ft 479 kts 179°
2026-04-13 17:14 48.78672 17.98294 35023 ft 483 kts 179°
2026-04-13 17:15 48.71957 17.99228 35022 ft 485 kts 179°
2026-04-13 17:15 48.65221 18.00163 35016 ft 486 kts 179°
2026-04-13 17:16 48.58530 18.01085 35018 ft 485 kts 178°
2026-04-13 17:16 48.51811 18.02006 35025 ft 483 kts 179°
2026-04-13 17:17 48.45111 18.02921 35030 ft 482 kts 178°
2026-04-13 17:17 48.38435 18.03831 35033 ft 481 kts 178°
2026-04-13 17:18 48.31771 18.04737 35036 ft 480 kts 178°
2026-04-13 17:18 48.25217 18.06349 35050 ft 483 kts 168°
2026-04-13 17:19 48.18715 18.08989 35039 ft 483 kts 167°
2026-04-13 17:19 48.12257 18.11605 35032 ft 482 kts 168°
2026-04-13 17:20 48.05796 18.14142 35038 ft 481 kts 168°
2026-04-13 17:20 47.99271 18.16660 35037 ft 481 kts 168°
2026-04-13 17:21 47.92623 18.19210 35037 ft 480 kts 168°
2026-04-13 17:21 47.86357 18.21611 35036 ft 480 kts 168°
2026-04-13 17:22 47.79879 18.24089 35036 ft 480 kts 168°
2026-04-13 17:22 47.73401 18.26561 35031 ft 480 kts 168°
2026-04-13 17:23 47.66977 18.29006 35030 ft 480 kts 168°
2026-04-13 17:23 47.60499 18.31466 35092 ft 479 kts 166°
2026-04-13 17:23 47.57303 18.32675 35082 ft 463 kts 166°
2026-04-13 17:24 47.54238 18.33837 35018 ft 446 kts 166°
2026-04-13 17:24 47.48294 18.36084 35039 ft 442 kts 166°
2026-04-13 17:25 47.42322 18.38335 35032 ft 448 kts 166°
2026-04-13 17:25 47.36232 18.40625 35020 ft 453 kts 166°
2026-04-13 17:26 47.30106 18.42922 35013 ft 455 kts 166°
2026-04-13 17:26 47.23968 18.45220 35012 ft 456 kts 167°
2026-04-13 17:27 47.14731 18.48666 35009 ft 457 kts 167°
2026-04-13 17:27 47.08556 18.50964 35009 ft 457 kts 167°
2026-04-13 17:28 47.02420 18.53239 35005 ft 458 kts 167°
2026-04-13 17:28 46.96231 18.55531 35004 ft 457 kts 167°
2026-04-13 17:29 46.90057 18.57813 35002 ft 457 kts 167°
2026-04-13 17:29 46.83898 18.60083 35002 ft 456 kts 167°
2026-04-13 17:30 46.77745 18.62345 34996 ft 455 kts 167°
2026-04-13 17:30 46.71596 18.64600 34996 ft 455 kts 167°
2026-04-13 17:31 46.65512 18.66826 34994 ft 454 kts 167°
2026-04-13 17:31 46.59382 18.69064 34992 ft 454 kts 167°
2026-04-13 17:32 46.53237 18.71302 34988 ft 453 kts 167°
2026-04-13 17:32 46.47136 18.73519 34998 ft 453 kts 167°
2026-04-13 17:33 46.41007 18.75741 34990 ft 453 kts 167°
2026-04-13 17:33 46.34891 18.77952 34987 ft 452 kts 167°
2026-04-13 17:34 46.25759 18.81246 34984 ft 452 kts 167°
2026-04-13 17:35 46.19645 18.83445 34983 ft 452 kts 167°
2026-04-13 17:35 46.13537 18.85637 34983 ft 452 kts 167°
2026-04-13 17:36 46.07499 18.87799 34981 ft 451 kts 167°
2026-04-13 17:36 46.01341 18.89999 34977 ft 451 kts 167°
2026-04-13 17:37 45.95247 18.92172 34975 ft 451 kts 167°
2026-04-13 17:37 45.89419 18.95508 34990 ft 453 kts 153°
2026-04-13 17:38 45.83848 18.99729 34973 ft 453 kts 154°
2026-04-13 17:38 45.78283 19.03858 34970 ft 453 kts 154°
2026-04-13 17:39 45.72667 19.07975 34969 ft 453 kts 154°
2026-04-13 17:39 45.67050 19.12074 34961 ft 453 kts 154°
2026-04-13 17:40 45.61431 19.16166 34960 ft 453 kts 155°
2026-04-13 17:40 45.55842 19.20229 34959 ft 453 kts 155°
2026-04-13 17:41 45.50219 19.24308 34960 ft 453 kts 154°
2026-04-13 17:41 45.45539 19.27698 34959 ft 453 kts 155°
2026-04-13 17:42 45.39925 19.31754 34960 ft 453 kts 155°
2026-04-13 17:42 45.34280 19.35823 34958 ft 453 kts 155°
2026-04-13 17:43 45.28685 19.39848 34953 ft 453 kts 155°
2026-04-13 17:43 45.23099 19.43858 34955 ft 453 kts 155°
2026-04-13 17:44 45.17465 19.47891 34953 ft 453 kts 155°
2026-04-13 17:44 45.11839 19.51912 34955 ft 453 kts 155°
2026-04-13 17:45 45.06208 19.55925 34950 ft 453 kts 155°
2026-04-13 17:45 45.00585 19.59927 34949 ft 452 kts 155°
2026-04-13 17:46 44.94958 19.63923 34947 ft 452 kts 155°
2026-04-13 17:46 44.89323 19.67754 34942 ft 451 kts 160°
2026-04-13 17:47 44.83425 19.70711 34941 ft 450 kts 163°
2026-04-13 17:47 44.77488 19.73562 34944 ft 450 kts 162°
2026-04-13 17:48 44.71571 19.76452 34936 ft 450 kts 162°
2026-04-13 17:48 44.65648 19.79385 34929 ft 450 kts 162°
2026-04-13 17:49 44.59734 19.82320 34919 ft 451 kts 162°
2026-04-13 17:49 44.53858 19.85232 34919 ft 451 kts 162°
2026-04-13 17:50 44.47926 19.88162 34914 ft 451 kts 162°
2026-04-13 17:50 44.42005 19.91081 34912 ft 451 kts 162°
2026-04-13 17:51 44.36090 19.93990 34911 ft 450 kts 163°
2026-04-13 17:51 44.30192 19.96884 34914 ft 450 kts 163°
2026-04-13 17:52 44.24280 19.99779 34918 ft 450 kts 163°
2026-04-13 17:52 44.18381 20.02661 34920 ft 450 kts 163°
2026-04-13 17:53 44.12456 20.05551 34916 ft 449 kts 163°
2026-04-13 17:53 44.06596 20.08402 34919 ft 449 kts 163°
2026-04-13 17:54 44.00695 20.11267 34920 ft 449 kts 163°
2026-04-13 17:54 43.94769 20.14139 34868 ft 451 kts 163°
2026-04-13 17:54 43.91807 20.15571 34767 ft 450 kts 163°
2026-04-13 17:55 43.88872 20.16991 34530 ft 444 kts 163°
2026-04-13 17:55 43.85963 20.18397 34297 ft 441 kts 163°
2026-04-13 17:55 43.83058 20.19797 34077 ft 444 kts 163°
2026-04-13 17:55 43.80175 20.21185 33846 ft 445 kts 163°
2026-04-13 17:56 43.77255 20.22590 33585 ft 445 kts 163°
2026-04-13 17:56 43.74323 20.23999 33317 ft 445 kts 163°
2026-04-13 17:56 43.71399 20.25403 33076 ft 446 kts 164°
2026-04-13 17:56 43.68470 20.26808 32819 ft 446 kts 164°
2026-04-13 17:57 43.65531 20.28219 32585 ft 447 kts 164°
2026-04-13 17:57 43.62594 20.29628 32359 ft 447 kts 164°
2026-04-13 17:57 43.59651 20.31041 32140 ft 447 kts 163°
2026-04-13 17:57 43.56722 20.32459 31908 ft 446 kts 164°
2026-04-13 17:58 43.53793 20.33863 31705 ft 446 kts 163°
2026-04-13 17:58 43.50868 20.35260 31503 ft 446 kts 163°
2026-04-13 17:58 43.47922 20.36668 31317 ft 446 kts 164°
2026-04-13 17:58 43.45022 20.38065 31122 ft 447 kts 164°
2026-04-13 17:59 43.42081 20.39466 30960 ft 448 kts 163°
2026-04-13 17:59 43.39124 20.40868 30802 ft 449 kts 163°
2026-04-13 17:59 43.36169 20.42281 30646 ft 450 kts 164°
2026-04-13 17:59 43.33200 20.43715 30490 ft 451 kts 165°
2026-04-13 18:00 43.30235 20.45133 30349 ft 453 kts 163°
2026-04-13 18:00 43.27239 20.46509 30217 ft 453 kts 163°
2026-04-13 18:00 43.24275 20.47948 30061 ft 445 kts 166°
2026-04-13 18:00 43.21400 20.49338 29865 ft 433 kts 162°
2026-04-13 18:01 43.18592 20.50584 29558 ft 427 kts 166°
2026-04-13 18:01 43.15752 20.51819 29167 ft 428 kts 165°
2026-04-13 18:01 43.12926 20.53139 28774 ft 429 kts 164°
2026-04-13 18:01 43.10117 20.54481 28401 ft 429 kts 163°
2026-04-13 18:02 43.07291 20.55830 28031 ft 429 kts 164°
2026-04-13 18:02 43.04475 20.57160 27657 ft 425 kts 164°
2026-04-13 18:02 43.01725 20.58452 27285 ft 416 kts 164°
2026-04-13 18:02 42.99011 20.59772 26914 ft 409 kts 163°
2026-04-13 18:03 42.96360 20.61160 26562 ft 408 kts 162°
2026-04-13 18:03 42.93721 20.62577 26205 ft 409 kts 162°
2026-04-13 18:03 42.91127 20.63974 25872 ft 409 kts 161°
2026-04-13 18:03 42.88445 20.65413 25523 ft 409 kts 162°
2026-04-13 18:04 42.85792 20.66827 25189 ft 410 kts 162°
2026-04-13 18:04 42.83131 20.68238 24860 ft 409 kts 162°
2026-04-13 18:04 42.80476 20.69639 24533 ft 409 kts 162°
2026-04-13 18:04 42.77945 20.70972 24160 ft 404 kts 162°
2026-04-13 18:05 42.75332 20.72347 23785 ft 398 kts 163°
2026-04-13 18:05 42.72769 20.73694 23386 ft 392 kts 163°
2026-04-13 18:05 42.70235 20.75023 22945 ft 387 kts 163°
2026-04-13 18:05 42.67772 20.76314 22520 ft 382 kts 163°
2026-04-13 18:06 42.65301 20.77607 22087 ft 377 kts 163°
2026-04-13 18:06 42.62863 20.78882 21674 ft 372 kts 163°
2026-04-13 18:06 42.60458 20.80139 21262 ft 368 kts 163°
2026-04-13 18:06 42.58078 20.81381 20850 ft 364 kts 163°
2026-04-13 18:07 42.55723 20.82609 20444 ft 361 kts 163°
2026-04-13 18:07 42.53393 20.83824 20062 ft 357 kts 163°
2026-04-13 18:07 42.51073 20.85031 19666 ft 354 kts 163°
2026-04-13 18:07 42.48787 20.86221 19276 ft 351 kts 163°
2026-04-13 18:08 42.46543 20.87387 18903 ft 348 kts 163°
2026-04-13 18:08 42.44287 20.88560 18527 ft 346 kts 163°
2026-04-13 18:08 42.42053 20.89720 18129 ft 343 kts 163°
2026-04-13 18:08 42.39832 20.90872 17695 ft 340 kts 163°
2026-04-13 18:09 42.37626 20.92015 17270 ft 338 kts 163°
2026-04-13 18:09 42.35438 20.93149 16869 ft 336 kts 163°
2026-04-13 18:09 42.33266 20.94274 16449 ft 333 kts 163°
2026-04-13 18:09 42.31109 20.95390 16082 ft 330 kts 163°
2026-04-13 18:10 42.28976 20.96493 15742 ft 326 kts 163°
2026-04-13 18:10 42.26867 20.97582 15365 ft 323 kts 164°
2026-04-13 18:10 42.24780 20.98665 14994 ft 320 kts 164°
2026-04-13 18:10 42.22729 20.99722 14624 ft 311 kts 164°
2026-04-13 18:11 42.20736 21.00749 14256 ft 301 kts 164°
2026-04-13 18:11 42.18804 21.01745 13902 ft 293 kts 164°
2026-04-13 18:11 42.16947 21.02700 13520 ft 285 kts 164°
2026-04-13 18:11 42.15133 21.03696 13193 ft 279 kts 160°
2026-04-13 18:12 42.13432 21.04903 12840 ft 275 kts 156°
2026-04-13 18:12 42.11772 21.06198 12511 ft 274 kts 155°
2026-04-13 18:12 42.10132 21.07493 12246 ft 271 kts 155°
2026-04-13 18:12 42.08514 21.08772 11987 ft 269 kts 155°
2026-04-13 18:13 42.06936 21.10103 11726 ft 267 kts 152°
2026-04-13 18:13 42.05414 21.11533 11477 ft 265 kts 149°
2026-04-13 18:13 42.03934 21.12979 11228 ft 262 kts 149°
2026-04-13 18:13 42.02468 21.14414 10963 ft 258 kts 149°
2026-04-13 18:14 42.01024 21.15823 10748 ft 256 kts 149°
2026-04-13 18:14 41.99578 21.17226 10501 ft 254 kts 149°
2026-04-13 18:14 41.98159 21.18596 10267 ft 254 kts 149°
2026-04-13 18:14 41.96725 21.19970 10011 ft 252 kts 149°
2026-04-13 18:15 41.95373 21.21261 9777 ft 250 kts 149°
2026-04-13 18:15 41.93952 21.22612 9497 ft 248 kts 149°
2026-04-13 18:15 41.92551 21.23938 9266 ft 247 kts 149°
2026-04-13 18:15 41.91128 21.25272 9020 ft 246 kts 149°
2026-04-13 18:16 41.89739 21.26567 8863 ft 240 kts 149°
2026-04-13 18:16 41.88394 21.27860 8701 ft 238 kts 142°
2026-04-13 18:16 41.87467 21.29680 8541 ft 243 kts 118°
2026-04-13 18:16 41.86752 21.31745 8284 ft 245 kts 120°
2026-04-13 18:17 41.85998 21.33776 8044 ft 241 kts 123°
2026-04-13 18:17 41.85153 21.35709 7781 ft 240 kts 125°
2026-04-13 18:17 41.84272 21.37627 7458 ft 242 kts 125°
2026-04-13 18:17 41.83373 21.39550 7151 ft 244 kts 125°
2026-04-13 18:18 41.82476 21.41493 6830 ft 246 kts 123°
2026-04-13 18:18 41.81627 21.43492 6535 ft 248 kts 118°
2026-04-13 18:18 41.80941 21.45561 6221 ft 251 kts 115°
2026-04-13 18:18 41.80269 21.47741 5886 ft 253 kts 114°
2026-04-13 18:19 41.79595 21.49951 5504 ft 253 kts 114°
2026-04-13 18:19 41.78984 21.52006 6039 ft 224 kts 111°
2026-04-13 18:19 41.78740 21.53979 6092 ft 211 kts 91°
2026-04-13 18:19 41.78785 21.55920 5923 ft 206 kts 92°
2026-04-13 18:20 41.78804 21.57788 5749 ft 199 kts 92°
2026-04-13 18:20 41.78823 21.59588 5630 ft 187 kts 92°
2026-04-13 18:20 41.78872 21.61318 5438 ft 191 kts 84°
2026-04-13 18:20 41.79149 21.63026 5426 ft 182 kts 81°
2026-04-13 18:21 41.79438 21.64620 5193 ft 172 kts 74°
2026-04-13 18:21 41.80160 21.65864 4777 ft 171 kts 36°
2026-04-13 18:21 41.81143 21.66755 4321 ft 174 kts 36°
2026-04-13 18:21 41.82301 21.67173 3823 ft 176 kts 349°
2026-04-13 18:22 41.83383 21.66442 3743 ft 177 kts 326°
2026-04-13 18:22 41.84512 21.65841 3559 ft 177 kts 358°
2026-04-13 18:22 41.85733 21.65797 3170 ft 179 kts 348°
2026-04-13 18:22 41.86957 21.65394 2642 ft 179 kts 345°
2026-04-13 18:23 41.88106 21.64964 2344 ft 165 kts 347°
2026-04-13 18:23 41.89198 21.64575 2127 ft 165 kts 347°
2026-04-13 18:23 41.90326 21.64182 1859 ft 171 kts 346°
2026-04-13 18:23 41.91482 21.63778 1624 ft 174 kts 347°
2026-04-13 18:24 41.92661 21.63389 1327 ft 172 kts 349°
2026-04-13 18:24 41.93799 21.62935 1023 ft 166 kts 346°
2026-04-13 18:24 41.94884 21.62580 875 ft 150 kts 346°
2026-04-13 18:24 41.95840 21.62259 798 ft 128 kts 347°
2026-04-13 18:25 41.96630 21.61987 789 ft 97 kts 345°
2026-04-13 18:25 41.96917 21.61884 789 ft 28 kts 345°
2026-04-13 18:25 41.97010 21.61905 789 ft 0 kts 64°
2026-04-13 18:26 41.97007 21.61922 789 ft 2 kts 120°
2026-04-13 18:26 41.96999 21.61939 789 ft 2 kts 120°
2026-04-13 18:27 41.96988 21.61965 789 ft 8 kts 121°
2026-04-13 18:27 41.96936 21.62068 791 ft 15 kts 127°
2026-04-13 18:27 41.96869 21.62164 793 ft 14 kts 152°
2026-04-13 18:27 41.96777 21.62195 792 ft 13 kts 165°
2026-04-13 18:28 41.96689 21.62225 792 ft 13 kts 165°
2026-04-13 18:28 41.96605 21.62254 792 ft 13 kts 166°
2026-04-13 18:28 41.96521 21.62282 792 ft 12 kts 166°
2026-04-13 18:28 41.96440 21.62311 792 ft 12 kts 165°
2026-04-13 18:29 41.96344 21.62347 791 ft 17 kts 165°
2026-04-13 18:29 41.96236 21.62387 791 ft 16 kts 165°
2026-04-13 18:29 41.96129 21.62427 791 ft 15 kts 164°
2026-04-13 18:29 41.96029 21.62459 790 ft 14 kts 158°
2026-04-13 18:30 41.96019 21.62539 792 ft 8 kts 77°
2026-04-13 18:30 41.96031 21.62599 792 ft 0 kts 73°